Wind_Speed
11 12 13 17 19 24 26 29 31 37 38 38 40 41 42 42 42 41 39 37 35 35 36 37 37 36 38 38 38 37 36 34 31 29 27 24 22 21 20 19 17 17 17 18
5 7 11 13 15 17 20 22 24 30 34 36 37 38 38 38 36 34 33 32 33 33 34 34 36 37 39 39 39 37 35 31 29 27 25 22 19 17 15 13 13 14 14 16
2 6 6 8 9 9 11 14 17 21 24 25 28 27 28 30 29 27 27 28 29 31 33 35 38 40 41 41 40 37 34 31 29 27 23 20 16 14 13 13 14 15 16 17
5 6 7 7 9 9 10 13 14 16 17 17 21 20 21 25 25 26 27 28 30 32 36 38 40 41 41 39 38 36 33 31 30 27 23 20 18 16 16 17 18 19 20 20
8 8 8 9 11 12 12 13 13 14 15 15 17 17 15 22 22 25 27 29 32 34 37 39 39 39 38 37 36 35 34 33 30 27 25 23 21 21 21 22 23 23 23 23
6 7 7 8 10 11 11 11 11 12 12 12 15 14 13 18 19 20 22 24 26 29 32 34 34 34 34 35 35 36 35 34 31 29 28 26 26 27 27 28 28 27 26 25
5 6 8 9 9 10 11 11 11 10 10 12 17 14 15 19 19 19 20 22 23 25 27 30 31 32 33 34 36 37 36 35 33 32 31 30 30 31 32 31 30 29 27 26
5 7 11 10 9 9 10 10 10 11 11 12 15 14 17 20 20 20 21 23 25 26 28 30 33 34 34 35 37 37 37 36 35 34 34 34 34 35 34 33 31 30 28 27
7 8 12 10 8 8 9 9 11 13 13 13 12 14 19 22 22 22 23 24 27 28 30 32 34 36 37 38 39 39 39 39 39 38 38 38 37 36 35 34 33 32 30 29
7 7 10 10 9 8 10 11 13 14 15 14 15 17 19 20 22 24 26 28 30 33 34 36 38 39 40 41 42 43 44 45 45 44 43 42 41 39 39 38 37 35 33 32
5 6 8 11 12 14 14 15 15 17 19 19 19 22 23 24 26 28 30 32 34 37 39 41 43 44 44 45 46 47 49 49 50 50 49 48 46 45 43 42 41 39 37 34
7 9 10 13 15 16 17 19 20 21 22 24 25 30 26 28 30 32 33 35 38 40 42 44 46 48 48 49 50 51 52 53 54 55 55 54 52 50 49 47 46 43 40 37
10 13 15 16 20 21 21 22 22 24 25 27 29 34 32 34 35 37 38 40 42 43 45 47 49 50 52 53 54 55 56 58 59 60 61 61 59 57 55 53 50 48 45 41
14 16 18 18 19 23 24 25 25 26 28 30 32 37 37 38 40 41 42 43 44 46 48 49 51 53 55 57 58 60 61 62 63 65 66 66 66 64 62 59 56 54 50 45
17 19 20 21 22 24 25 26 28 30 31 32 34 37 39 41 42 42 43 45 47 49 52 54 56 58 60 62 64 66 67 68 70 71 72 73 72 72 71 68 64 60 55 50
19 20 20 22 23 26 27 28 30 30 32 34 36 39 41 44 46 48 50 53 56 58 60 63 65 67 68 70 72 74 75 75 75 75 76 76 74 73 73 72 68 63 58 52
20 21 21 22 25 27 28 28 30 32 34 36 40 44 48 50 53 56 59 63 66 68 71 73 75 76 77 79 80 82 83 84 84 83 83 82 80 77 74 71 67 64 60 56
21 21 22 22 25 26 28 30 32 35 38 42 46 50 53 57 61 64 69 73 76 78 80 80 79 78 76 75 75 76 77 80 83 86 88 89 89 86 84 82 79 75 71 66
22 22 22 23 26 31 30 34 37 40 44 47 51 56 60 64 68 72 76 79 80 78 75 70 66 62 59 56 56 56 57 60 64 68 71 74 77 78 79 79 79 77 75 71
24 24 25 27 29 32 37 39 42 46 51 55 59 64 68 72 76 78 78 76 69 61 54 49 45 43 43 43 44 45 44 44 45 47 50 52 53 54 57 60 63 65 66 65
25 26 27 29 32 35 38 42 45 50 55 59 64 69 74 78 79 76 67 56 48 42 39 39 40 41 42 43 44 43 42 40 38 38 38 38 38 38 40 42 45 49 53 55
27 29 30 32 35 40 43 47 50 55 60 65 69 74 77 76 69 58 47 41 38 39 41 43 44 45 46 47 47 46 45 44 41 39 37 34 32 31 30 30 32 35 39 44
29 31 33 35 38 42 47 51 55 59 64 68 73 76 75 66 52 42 38 39 41 43 45 47 48 48 48 48 49 48 46 46 43 41 38 36 33 30 28 27 28 29 31 35
32 34 36 38 41 44 49 53 57 62 68 73 76 73 64 51 41 38 40 43 45 46 48 49 49 49 49 49 49 49 48 47 45 43 40 37 34 30 27 25 24 23 24 25
36 37 39 41 44 48 52 57 62 67 72 75 73 63 51 42 39 41 44 47 48 49 50 50 50 49 48 48 48 48 48 47 45 42 40 38 34 30 26 24 23 21 21 20
37 39 42 44 48 52 56 60 65 71 75 73 65 51 42 41 42 45 48 49 50 50 50 50 48 47 46 46 46 47 46 44 41 39 38 36 34 31 28 25 24 23 22 21
Wind_Direction
269 263 256 252 247 246 246 244 245 248 251 252 254 257 260 262 264 266 267 267 265 263 264 268 271 275 279 284 290 294 295 293 290 290 291 289 286 283 280 280 283 287 293 298
292 274 263 262 258 255 253 252 252 255 255 258 261 265 268 270 270 270 268 265 263 264 266 268 271 276 280 287 291 292 293 291 290 290 290 287 283 279 275 274 279 287 295 302
217 266 273 275 275 272 267 261 260 263 267 270 271 274 278 276 276 274 269 264 262 264 266 270 273 278 282 287 288 289 290 291 291 290 290 286 281 277 275 279 286 291 297 303
276 278 280 286 286 282 285 274 273 276 277 276 278 278 278 282 278 274 269 265 262 263 266 269 273 277 281 283 284 286 288 289 289 289 287 284 279 277 279 283 287 293 300 305
283 281 282 284 281 282 278 282 283 284 284 283 284 287 282 282 278 272 267 263 261 262 265 268 271 274 277 279 281 283 286 288 288 286 285 282 276 274 276 280 285 291 297 302
301 297 291 288 291 289 290 292 295 297 298 297 288 292 289 283 283 279 274 269 266 265 266 265 265 268 271 275 279 282 285 286 286 285 284 280 275 273 274 277 281 286 291 298
323 318 310 307 305 302 301 301 305 306 300 292 297 298 287 287 286 284 281 277 273 270 270 267 269 271 273 277 280 282 283 283 283 282 281 279 276 275 275 278 280 283 287 294
305 296 302 307 306 303 300 299 296 289 284 286 298 295 287 289 289 288 286 283 281 277 275 275 277 278 279 280 280 281 281 280 280 279 279 278 277 277 278 279 280 282 286 290
278 275 298 304 306 306 302 297 296 297 300 301 293 287 285 287 289 289 286 283 281 280 278 277 277 278 279 279 279 278 279 279 278 277 277 276 277 277 278 279 279 282 284 288
278 275 292 304 310 309 305 303 302 300 298 295 291 292 283 289 286 284 282 280 280 280 279 279 278 278 278 277 277 277 278 278 277 276 274 274 274 275 277 278 279 280 282 285
300 304 308 313 318 317 316 314 310 305 303 301 296 286 297 293 288 284 281 278 277 276 277 277 277 276 276 275 275 275 275 275 275 275 274 274 273 274 274 276 277 278 279 281
329 327 320 316 317 317 316 315 314 311 309 308 306 299 304 297 293 290 287 283 280 277 276 275 275 275 275 274 273 273 273 274 274 275 275 275 275 274 274 274 275 275 276 277
330 327 326 325 322 323 319 317 316 313 311 310 308 300 306 300 297 295 292 289 286 283 280 278 277 276 275 274 273 273 272 272 272 273 274 274 275 274 274 273 273 273 273 274
327 325 323 319 312 313 315 315 314 312 310 308 305 302 305 302 300 298 296 293 290 287 284 282 281 280 278 277 276 275 274 273 273 273 273 273 273 273 272 272 271 271 270 270
328 325 323 319 316 315 314 314 312 310 308 306 304 303 304 303 302 300 297 295 293 291 289 287 285 283 281 280 278 276 274 272 272 271 270 270 270 270 269 269 267 266 264 264
332 329 326 321 318 316 317 316 313 312 311 309 308 307 306 305 303 302 301 298 296 293 290 288 285 282 279 277 275 272 270 268 267 267 266 265 264 265 264 262 260 258 258 259
334 331 329 326 322 319 320 319 315 314 312 311 309 308 307 306 305 304 302 299 297 295 292 289 287 284 282 279 276 273 271 269 268 267 265 265 264 263 262 259 257 256 256 258
334 332 330 327 322 321 320 317 314 312 312 310 310 309 309 308 307 306 304 302 300 297 295 293 292 290 288 286 284 281 278 276 273 271 269 268 267 266 265 263 262 261 261 262
337 334 331 329 324 319 320 318 316 315 314 313 313 313 312 311 309 308 306 303 302 301 300 299 298 297 297 297 295 294 291 287 283 279 275 272 271 269 268 266 265 264 263 262
337 335 331 327 323 320 321 320 319 318 317 318 317 316 315 313 311 309 307 306 305 305 305 306 306 306 305 304 303 303 302 298 294 288 283 278 275 273 270 267 265 262 260 257
333 331 328 325 321 320 321 320 320 319 319 318 318 317 317 315 313 312 311 311 311 313 313 313 312 309 307 305 304 303 302 301 298 295 292 285 280 276 272 266 262 258 253 249
332 330 328 327 326 325 324 322 323 322 322 321 320 320 318 317 317 317 318 319 318 316 314 311 310 308 306 303 301 299 298 295 292 290 289 287 282 279 273 269 262 255 248 240
334 332 330 329 328 325 325 325 324 324 324 323 324 324 322 322 323 323 323 321 318 316 314 312 311 309 308 304 300 298 295 292 288 285 282 281 277 274 271 268 264 256 245 236
336 333 331 330 328 327 326 325 326 327 328 328 328 327 325 326 327 326 325 323 320 318 316 314 312 310 308 305 302 298 295 291 285 281 277 274 270 267 264 261 257 248 238 230
337 335 333 331 329 330 330 330 331 332 332 332 331 329 328 330 330 328 327 325 322 320 317 315 313 312 310 307 305 301 296 292 285 278 271 266 262 256 252 248 243 236 229 223
337 335 334 333 332 334 334 335 335 335 335 335 333 331 331 331 331 329 328 327 325 323 320 318 316 315 313 310 307 304 299 294 285 276 268 260 253 245 240 236 234 231 229 226
Height
5873 5875 5876 5876 5877 5879 5880 5883 5884 5883 5884 5886 5886 5887 5886 5886 5887 5887 5887 5886 5885 5884 5882 5880 5879 5877 5875 5872 5870 5868 5865 5862 5859 5856 5853 5851 5849 5847 5845 5844 5842 5841 5839 5838
5873 5874 5873 5873 5874 5875 5877 5878 5879 5878 5878 5879 5879 5880 5879 5879 5879 5879 5879 5879 5879 5878 5876 5874 5872 5870 5868 5866 5863 5860 5857 5855 5852 5850 5847 5845 5843 5841 5839 5838 5837 5836 5834 5832
5874 5873 5872 5872 5872 5873 5874 5875 5875 5874 5873 5873 5873 5874 5872 5871 5871 5872 5872 5872 5872 5871 5869 5867 5865 5862 5860 5857 5855 5852 5850 5848 5846 5843 5841 5838 5837 5835 5834 5833 5832 5831 5829 5827
5872 5871 5871 5871 5871 5870 5872 5870 5870 5869 5870 5870 5869 5869 5869 5865 5865 5865 5865 5865 5865 5864 5862 5859 5856 5853 5851 5849 5846 5844 5842 5841 5838 5836 5834 5832 5831 5830 5829 5827 5826 5824 5822 5820
5871 5869 5869 5869 5868 5867 5867 5866 5866 5865 5865 5865 5864 5864 5866 5859 5858 5858 5857 5857 5856 5855 5853 5850 5847 5845 5843 5841 5838 5836 5835 5833 5831 5829 5827 5826 5825 5824 5822 5821 5819 5817 5815 5813
5869 5868 5867 5867 5866 5865 5864 5864 5864 5863 5863 5863 5860 5861 5860 5855 5853 5851 5850 5848 5847 5846 5843 5840 5837 5836 5834 5832 5831 5828 5827 5825 5823 5822 5820 5819 5818 5817 5815 5814 5812 5810 5808 5805
5870 5868 5867 5866 5865 5864 5863 5863 5863 5864 5864 5862 5857 5856 5854 5849 5847 5845 5844 5842 5840 5838 5836 5832 5829 5828 5826 5825 5823 5821 5819 5817 5816 5814 5813 5812 5810 5809 5807 5806 5804 5802 5800 5798
5870 5870 5866 5864 5863 5862 5861 5860 5861 5860 5860 5858 5854 5852 5849 5843 5841 5840 5838 5836 5834 5833 5831 5828 5825 5822 5819 5817 5815 5813 5811 5809 5807 5806 5805 5803 5802 5800 5798 5797 5795 5793 5791 5789
5870 5868 5864 5862 5861 5859 5858 5857 5856 5855 5853 5852 5851 5848 5842 5838 5837 5835 5832 5830 5828 5825 5823 5821 5818 5815 5812 5809 5807 5804 5802 5800 5798 5797 5796 5794 5792 5790 5788 5787 5785 5783 5781 5779
5866 5865 5863 5861 5859 5858 5856 5854 5853 5851 5849 5849 5848 5844 5841 5835 5832 5829 5826 5823 5820 5818 5815 5812 5808 5805 5802 5799 5796 5793 5791 5789 5787 5786 5785 5784 5782 5780 5779 5777 5775 5773 5771 5769
5864 5863 5862 5859 5857 5855 5853 5851 5849 5847 5844 5842 5841 5840 5834 5830 5826 5822 5819 5815 5812 5808 5804 5801 5797 5793 5790 5787 5784 5782 5779 5776 5774 5773 5772 5771 5770 5768 5767 5765 5764 5762 5760 5759
5863 5861 5859 5857 5854 5852 5849 5846 5844 5842 5838 5835 5832 5831 5827 5821 5817 5813 5809 5805 5801 5797 5793 5788 5784 5780 5777 5773 5770 5767 5765 5762 5759 5757 5756 5754 5754 5753 5752 5752 5751 5749 5748 5747
5861 5859 5857 5854 5852 5848 5844 5841 5839 5836 5832 5829 5825 5822 5818 5812 5807 5803 5798 5793 5789 5784 5779 5775 5770 5766 5762 5758 5754 5751 5748 5745 5742 5740 5738 5736 5735 5735 5735 5736 5735 5735 5735 5734
5858 5856 5854 5852 5848 5844 5839 5836 5832 5829 5826 5822 5818 5811 5806 5801 5796 5791 5786 5781 5775 5770 5765 5760 5755 5750 5745 5741 5737 5733 5729 5726 5723 5720 5718 5717 5715 5715 5716 5717 5718 5719 5719 5720
5854 5852 5849 5845 5842 5838 5834 5831 5827 5823 5819 5815 5809 5803 5796 5790 5785 5779 5773 5767 5761 5755 5749 5743 5737 5732 5727 5722 5717 5712 5708 5705 5702 5699 5697 5695 5694 5694 5694 5696 5698 5700 5702 5704
5850 5848 5845 5841 5836 5832 5829 5825 5820 5816 5811 5806 5800 5794 5788 5780 5773 5766 5759 5752 5745 5738 5731 5724 5718 5712 5706 5700 5695 5690 5685 5682 5679 5677 5675 5673 5671 5672 5672 5674 5677 5680 5683 5686
5847 5844 5841 5837 5831 5827 5823 5819 5813 5809 5803 5798 5791 5785 5776 5768 5760 5752 5743 5735 5726 5718 5709 5701 5693 5686 5679 5673 5668 5663 5660 5656 5653 5650 5649 5648 5647 5648 5651 5652 5654 5658 5662 5666
5843 5840 5836 5832 5828 5823 5821 5813 5808 5802 5796 5788 5781 5772 5763 5754 5745 5735 5724 5713 5703 5692 5682 5673 5664 5657 5650 5643 5637 5632 5629 5625 5622 5621 5619 5619 5619 5621 5624 5627 5630 5635 5640 5645
5838 5835 5831 5828 5822 5816 5813 5806 5798 5791 5785 5776 5767 5758 5748 5738 5728 5717 5702 5689 5676 5665 5655 5646 5638 5630 5624 5618 5612 5607 5603 5597 5594 5592 5590 5590 5590 5592 5595 5598 5603 5608 5615 5622
5834 5830 5826 5821 5816 5811 5805 5797 5788 5781 5771 5762 5752 5742 5731 5719 5707 5698 5681 5666 5653 5643 5634 5627 5620 5614 5608 5602 5595 5590 5585 5579 5575 5571 5569 5568 5568 5568 5570 5572 5576 5581 5588 5597
5830 5826 5822 5816 5810 5803 5797 5789 5781 5773 5764 5752 5740 5727 5714 5700 5685 5671 5658 5647 5636 5629 5622 5615 5609 5602 5596 5589 5583 5578 5572 5567 5562 5558 5555 5553 5552 5552 5552 5552 5554 5558 5563 5571
5826 5821 5816 5810 5804 5797 5787 5778 5770 5761 5749 5737 5724 5710 5695 5680 5665 5651 5640 5632 5625 5619 5612 5605 5598 5591 5583 5576 5569 5564 5559 5554 5549 5546 5543 5541 5540 5540 5539 5539 5540 5541 5544 5550
5821 5816 5809 5804 5798 5788 5778 5768 5759 5748 5737 5723 5708 5692 5675 5660 5649 5640 5632 5624 5617 5608 5600 5592 5584 5576 5569 5560 5553 5547 5543 5538 5534 5531 5530 5529 5529 5529 5529 5529 5529 5529 5532 5536
5816 5810 5803 5796 5788 5780 5771 5760 5749 5736 5722 5706 5689 5672 5657 5647 5638 5631 5623 5615 5606 5597 5588 5578 5569 5561 5553 5545 5537 5530 5525 5520 5517 5515 5515 5515 5516 5518 5519 5520 5520 5522 5524 5528
5809 5802 5796 5788 5780 5771 5761 5749 5736 5723 5708 5692 5674 5658 5645 5637 5630 5622 5613 5604 5595 5585 5574 5564 5554 5546 5537 5529 5521 5513 5507 5502 5498 5497 5497 5499 5503 5506 5510 5512 5514 5517 5520 5524
5804 5796 5788 5781 5771 5761 5751 5738 5725 5711 5695 5678 5662 5649 5638 5629 5621 5612 5603 5593 5582 5571 5561 5550 5540 5530 5522 5513 5505 5497 5489 5483 5480 5479 5480 5483 5488 5494 5500 5504 5508 5511 5515 5519